Find Starlink 30279

NORAD ID: 57885 Int'l Des: 2023-144 Owner: SPXS Country: US Constellation: starlink operational
LEOCIRCULAR

リアルタイム位置

3D地球を読み込み中...

Starlink 30279について

説明を読み込み中...

次回通過

Passes for default location (London). Set your location on the main map for personalized predictions.

高度履歴

Loading altitude history...

軌道要素

1 57885U 23144X 26125.59093801 -.00000841 00000-0 -21029-4 0 9991
2 57885 43.0035 323.5177 0000716 282.7669 77.3103 15.27594986146280
Epoch: May 5, 2026 • Age: 14 hours

現在のステータス

高度 483.0 km
速度 7.63 km/s
衛星直下点 -2.94°S, 28.71°E
打ち上げ日 Sep 16, 2023
運用期間 2.6 years
タイプ internet

技術仕様

分類 Payload
質量 730.00 kg
乾燥質量 700.00 kg
総質量 730.00 kg
長さ 0.30 m
直径 4.10 m
スパン 29.00 m
形状 Box + pan
製造者 SPXS
バスタイプ Starlink V2M
フェーズステータス In Orbit
所有者/国 SPXS/US

Most Searched